TimeEDT,TemperatureF,Dew PointF,Humidity,Sea Level PressureIn,VisibilityMPH,Wind Direction,Wind SpeedMPH,Gust SpeedMPH,PrecipitationIn,Events,Conditions,WindDirDegrees,DateUTC
12:25 AM,29.7,20.7,69,29.96,-9999.0,Calm,Calm,-,N/A,,Unknown,0,2013-04-11 04:25:00
1:25 AM,30.0,16.0,56,29.97,-9999.0,Calm,Calm,-,N/A,,Unknown,0,2013-04-11 05:25:00
2:25 AM,29.5,15.6,56,29.95,-9999.0,Variable,2.3,-,N/A,,Unknown,0,2013-04-11 06:25:00
3:25 AM,28.9,15.1,56,29.97,-9999.0,Variable,3.5,-,N/A,,Unknown,0,2013-04-11 07:25:00
4:25 AM,28.0,12.4,52,29.99,-9999.0,Variable,3.5,12.7,N/A,,Unknown,0,2013-04-11 08:25:00
5:25 AM,26.4,12.2,55,29.99,-9999.0,Variable,3.5,12.7,N/A,,Unknown,0,2013-04-11 09:25:00
6:25 AM,25.0,13.3,61,30.03,-9999.0,Variable,3.5,-,0.00,,Unknown,0,2013-04-11 10:25:00
7:25 AM,25.5,14.5,63,30.05,-9999.0,Variable,5.8,-,N/A,,Unknown,0,2013-04-11 11:25:00
8:25 AM,26.1,15.4,64,30.05,-9999.0,Variable,3.5,13.8,N/A,,Unknown,0,2013-04-11 12:25:00
9:25 AM,27.7,12.7,54,30.07,-9999.0,Variable,6.9,17.3,N/A,,Unknown,0,2013-04-11 13:25:00
10:25 AM,28.8,8.6,43,30.08,-9999.0,WNW,9.2,20.7,N/A,,Unknown,300,2013-04-11 14:25:00
11:25 AM,30.2,8.2,40,30.09,-9999.0,NNW,10.4,19.6,N/A,,Unknown,330,2013-04-11 15:25:00
12:25 PM,31.1,7.2,37,30.09,-9999.0,NW,8.1,18.4,N/A,,Unknown,310,2013-04-11 16:25:00
1:25 PM,33.1,8.6,36,30.11,-9999.0,Variable,6.9,19.6,N/A,,Unknown,0,2013-04-11 17:25:00
2:25 PM,34.9,7.3,32,30.10,-9999.0,Variable,4.6,20.7,N/A,,Unknown,0,2013-04-11 18:25:00
3:25 PM,35.1,8.4,33,30.09,-9999.0,Variable,5.8,25.3,N/A,,Unknown,0,2013-04-11 19:25:00
4:25 PM,35.1,4.6,28,30.10,-9999.0,Variable,6.9,16.1,N/A,,Unknown,0,2013-04-11 20:25:00
5:25 PM,34.0,7.0,32,30.13,-9999.0,Variable,5.8,17.3,N/A,,Unknown,0,2013-04-11 21:25:00
6:25 PM,31.8,6.8,35,30.16,-9999.0,Variable,4.6,11.5,N/A,,Unknown,0,2013-04-11 22:25:00
7:25 PM,29.1,9.3,44,30.17,-9999.0,Variable,2.3,-,N/A,,Unknown,0,2013-04-11 23:25:00
8:25 PM,27.5,10.0,48,30.19,-9999.0,Calm,Calm,-,N/A,,Unknown,0,2013-04-12 00:25:00
9:25 PM,25.0,12.7,60,30.22,-9999.0,Calm,Calm,-,0.00,,Unknown,0,2013-04-12 01:25:00
10:25 PM,24.3,12.4,61,30.24,-9999.0,Variable,2.3,-,N/A,,Unknown,0,2013-04-12 02:25:00
11:25 PM,22.1,13.5,69,30.25,-9999.0,Calm,Calm,-,N/A,,Unknown,0,2013-04-12 03:25:00